Regional Weather Roundup
Issued by NWS Jackson, KY

Home | Current Version | Previous Version | Text Only | Print | Product List | Glossary On
Versions: 1 2 3 4 5 6 7 8 9 10 11 12 13 14 15 16 17 18 19 20 21 22 23 24 25 26 27 28 29 30 31 32 33 34 35 36 37 38 39 40 41 42 43 44 45 46 47 48 49
000
ASUS43 KJKL 270810
RWRJKL

EAST KENTUCKY HOURLY WEATHER ROUNDUP
NATIONAL WEATHER SERVICE JACKSON KY
400 AM EDT WED MAY 27 2015

NOTE: "FAIR" INDICATES FEW OR NO CLOUDS BELOW 12,000 FEET WITH
NO SIGNIFICANT WEATHER AND/OR OBSTRUCTIONS TO VISIBILITY.

* THESE REPORTS ARE NOT UNDER NWS QUALITY CONTROL AND MAY NOT
  REPORT WEATHER SUCH AS PRECIPITATION AND FOG.

KYZ079-080-083-085-087-088-110-112-115-119-120-270900
...EASTERN KENTUCKY...

CITY           SKY/WX    TMP DP  RH WIND       PRES   REMARKS
JACKSON        CLOUDY    67  64  90 CALM      30.14F
LONDON         MOCLDY    67  62  84 S5        30.14F
SOMERSET*      MOCLDY    64  64 100 S5        30.13F
MONTICELLO*    PTCLDY    67  67 100 CALM      30.14F
MIDDLESBORO*   MOCLDY    68  64  86 S3        30.17S
HARLAN APT*    CLOUDY    66  63  88 N6        30.18S
HAZARD APT*    PTSUNNY   68  64  88 S3        30.15S
BLACK MTN*       N/A     57  57 100 SW5         N/A
PIKEVILLE APT* CLOUDY    68  64  88 CALM      30.14F
BIG SANDY*     CLOUDY    71  64  78 SW7       30.14S
MOREHEAD APT*  PTSUNNY   66  66 100 S6G12     30.12F
$$

KYZ035-036-041-042-044-050-067-078-099-270900
...CENTRAL KENTUCKY...

CITY           SKY/WX    TMP DP  RH WIND       PRES   REMARKS
MT STERLING*   CLOUDY    64  64 100 SW6       30.12S
FLEMING/MASON* CLOUDY    66  64  94 SW5       30.10S
DANVILLE*      CLOUDY    66  64  94 S6        30.11S
RICHMOND*      PTCLDY    68  64  88 S8        30.10F
LEXINGTON      CLOUDY    68  67  96 SW5       30.09S
FRANKFORT      CLOUDY    68  66  93 SW7       30.07S
$$

KYZ091>093-OHZ055-061-077-WVZ005-015-034-035-042-270900
...SOUTHERN OHIO/WEST VIRGINIA...

CITY           SKY/WX    TMP DP  RH WIND       PRES   REMARKS
COVINGTON      CLOUDY    67  65  93 S8        30.05F
COLUMBUS       CLOUDY    67  65  93 S9        30.05F
DAYTON         PTCLDY    67  65  93 S9        30.04F
WILMINGTON     CLOUDY    67  64  90 SW10      30.05F
HUNTINGTON     PTCLDY    65  64  97 SW6       30.09F
CHARLESTON     CLOUDY    67  66  97 CALM      30.10F FOG
PINEVILLE*     CLOUDY    66  66 100 MISG      30.21S FOG
BECKLEY        CLOUDY    66  60  81 S5        30.18F
BLUEFIELD      CLOUDY    68  60  75 SW8       30.21F
$$

VAZ002-007-008-TNZ017-027-036-066-071-270900
...SOUTHWEST VIRGINIA/EAST TENNESSEE...

CITY           SKY/WX    TMP DP  RH WIND       PRES   REMARKS
WISE*          MOCLDY    64  63  94 SW10G18   30.22F
JONESVILLE*    PTSUNNY   66  66 100 SW5       30.20F
ABINGDON*      CLOUDY    67  67  99 CALM      30.20S
BRISTOL        CLOUDY    68  65  90 CALM      30.18S
KNOXVILLE      MOCLDY    67  62  84 W8        30.17S
OAK RIDGE      CLOUDY    68  64  87 VRB5      30.18F
CROSSVILLE     CLOUDY    66  62  87 VRB6      30.18F
NASHVILLE      MOCLDY    70  66  88 S6        30.12R
$$

...KEY TO REMARKS...
VSB - VISIBILITY IN MILES
WCI - WIND CHILL INDEX
HX  - HEAT INDEX

$$


USA.gov is the U.S. government's official web portal to all federal, state and local government web resources and services.